Galena, Illinois, United States (61036)
Lat: 42.42N, Lon: 90.43W
Wx Zone: ILZ001
Local Info
Past Weather Observations for Today

NOTE: This archive is for the closest National Weather Service station to Galena. Information may differ from the station used for current weather conditions.

Click here for Long-term Archive

Time Weather Temperature Dewpoint Humidity Pressure Winds Precip Visibility
14:53
Clear
72°F / 22°C 48°F / 9°C 44% 30.01 in
(1016 mb)
ENE 10.4 mph
(ENE 17 kph)
- 10SM
13:53
Clear
72°F / 22°C 52°F / 11°C 50% 30.01 in
(1016 mb)
NE 9.2 mph
(NE 15 kph)
- 10SM
12:53
Clear
70°F / 21°C 52°F / 11°C 53% 30.01 in
(1016 mb)
ENE 10.4 mph
(ENE 17 kph)
- 10SM
11:53
Clear
66°F / 19°C 50°F / 10°C 56% 30.01 in
(1016 mb)
ENE 11.5 mph
(ENE 19 kph)
- 10SM
10:53
Clear
66°F / 19°C 52°F / 11°C 60% 30.04 in
(1017 mb)
ENE 11.5 mph
(ENE 19 kph)
- 10SM
09:53
Clear
66°F / 19°C 52°F / 11°C 60% 30.04 in
(1017 mb)
ENE 10.4 mph
(ENE 17 kph)
- 10SM
08:53
Clear
64°F / 18°C 46°F / 8°C 52% 30.04 in
(1017 mb)
E 12.7 mph
(E 20 kph)
- 10SM
07:53
Clear
61°F / 16°C 52°F / 11°C 72% 30.04 in
(1017 mb)
NE 6.9 mph
(NE 11 kph)
- 10SM
06:53
Clear
55°F / 13°C 52°F / 11°C 88% 30.04 in
(1017 mb)
NE 8.1 mph
(NE 13 kph)
- 9SM
06:18
Clear
Fog And Mist
54°F / 12°C 52°F / 11°C 94% 30.04 in
(1017 mb)
NE 6.9 mph
(NE 11 kph)
- 4SM
06:12
Mostly Cloudy
Fog And Mist
52°F / 11°C 52°F / 11°C 100% 30.04 in
(1017 mb)
NE 9.2 mph
(NE 15 kph)
- 2SM
05:53
Obscured
Fog
52°F / 11°C 52°F / 11°C 100% 30.04 in
(1017 mb)
NE 8.1 mph
(NE 13 kph)
- 1/2SM
05:22
Obscured
Fog
52°F / 11°C 50°F / 10°C 94% 30.04 in
(1017 mb)
NE 5.8 mph
(NE 9 kph)
- 1/4SM
05:19
Obscured
Fog
52°F / 11°C 50°F / 10°C 94% 30.04 in
(1017 mb)
N 5.8 mph
(N 9 kph)
- 1/2SM
04:53
Obscured
Fog
52°F / 11°C 52°F / 11°C 100% 30.01 in
(1016 mb)
NE 4.6 mph
(NE 7 kph)
- M1/4SM
04:39
Obscured
Fog
52°F / 11°C 50°F / 10°C 94% 30.01 in
(1016 mb)
NE 6.9 mph
(NE 11 kph)
- 1/4SM
04:36
Obscured
Fog And Mist
52°F / 11°C 50°F / 10°C 94% 30.04 in
(1017 mb)
NE 6.9 mph
(NE 11 kph)
- 1SM
03:53
Clear
52°F / 11°C 48°F / 9°C 88% 30.01 in
(1016 mb)
NE 5.8 mph
(NE 9 kph)
- 10SM
02:53
Clear
52°F / 11°C 50°F / 10°C 94% 30.01 in
(1016 mb)
Calm - 9SM
01:53
Clear
54°F / 12°C 52°F / 11°C 94% 30.01 in
(1016 mb)
SE 4.6 mph
(SE 7 kph)
- 10SM
00:53
Clear
55°F / 13°C 52°F / 11°C 88% 30.01 in
(1016 mb)
ESE 5.8 mph
(ESE 9 kph)
- 10SM
Time Weather Temperature Dewpoint Humidity Pressure Winds Precip Visibility


Weather for websites

WeatherForYou.com, LLC is not responsible for any damages or problems caused by this service. Current weather conditions are obtained from the closest station including government and personal stations which may have varying degrees of accuracy. Weather forecasts are derived from the NOAA NDFD. Like all things, this site belongs to Jesus Christ... He just trusts us to maintain it. If you have any questions or comments email webmaster@weatherforyou.com

Copyright © 2015, WeatherForYou.com LLC. All rights reserved.